Regional Weather Roundup
Issued by NWS Northern Indiana

Home | Current Version | Previous Version | Text Only | Print | Product List | Glossary On
Versions: 1 2 3 4 5 6 7 8 9 10 11 12 13 14 15 16 17 18 19 20 21 22 23 24 25 26 27 28 29 30 31 32 33 34 35 36 37 38 39 40 41 42 43 44 45 46 47 48 49 50
000
ASUS43 KIWX 011300
RWRIWX

KIWX WEATHER ROUNDUP
NATIONAL WEATHER SERVICE NORTHERN INDIANA
900 AM EDT SUN MAY 01 2016

NOTE: "FAIR" INDICATES FEW OR NO CLOUDS BELOW 12,000 FEET WITH NO
SIGNIFICANT WEATHER AND/OR OBSTRUCTIONS TO VISIBILITY.

* THESE STATIONS ARE NOT UNDER NWS QUALITY CONTROL. THEY ALSO MAY NOT
  REPORT WEATHER SUCH AS PRECIPITATION OR FOG.

INZ001>027-011400-
NORTHERN INDIANA

CITY           SKY/WX    TMP DP  RH WIND       PRES   REMARKS
GARY*          FOG       46  46 100 N12       29.97R VSB 1/2
SOUTH BEND     CLOUDY    49  48  97 NE6       29.95R FOG
ELKHART*       CLOUDY    50  50 100 MISG      29.94R FOG
GOSHEN         CLOUDY    50  49  96 E5        29.93R FOG
ANGOLA*        CLOUDY    48  39  71 E7        29.93R
FORT WAYNE     FOG       51  49  92 E6        29.94R VSB 1
PERU/GRISSOM   CLOUDY    54  54 100 NE7       29.90R FOG

$$
INZ028>050-011400-
CENTRAL INDIANA

CITY           SKY/WX    TMP DP  RH WIND       PRES   REMARKS
LAFAYETTE      FOG       53  53 100 N5        29.90S VSB 1/2
KOKOMO*        CLOUDY    54  52  94 NE7       29.90F VSB 1/2
MUNCIE*        CLOUDY    64  61  90 W5        29.91R FOG
INDIANAPOLIS   PTSUNNY   62  58  86 SW3       29.90R

$$
MIZ043>046-050>051-056>058-064>065-071>073-077>080-011400-
SOUTHWEST LOWER MICHIGAN

CITY           SKY/WX    TMP DP  RH WIND       PRES   REMARKS
BATTLE CREEK   CLOUDY    46  45  96 N9        29.96R FOG
BENTON HARBOR  CLOUDY    49  46  90 NE6       29.96R FOG
COLDWATER*     CLOUDY    48  48 100 N7        29.93S FOG
HILLSDALE*     CLOUDY    48  48 100 E3        29.94R FOG
HOLLAND        CLOUDY    47  45  93 NE9       29.98R FOG
GRAND RAPIDS   LGT RAIN  47  45  93 NE9       29.99R FOG
KALAMAZOO      CLOUDY    47  44  90 NE5       29.95R FOG
STURGIS*       CLOUDY    48  48  98 NE7       29.93R FOG
THREE RIVERS*  CLOUDY    48  48 100 NE7       29.95R FOG

$$
OHZ001>008-015>018-024>025-011400-
NORTHWEST OHIO

CITY           SKY/WX    TMP DP  RH WIND       PRES   REMARKS
DEFIANCE       CLOUDY    51  48  89 NE7       29.93S
FINDLAY        FOG       53  50  89 E3        29.92R VSB 3/4
TOLEDO EXPRESS FOG       49  49 100 NE6       29.93S VSB 1
TOLEDO METCALF FOG       51  49  92 NE6       29.94R VSB 1/4
LIMA           FOG       55  55 100 CALM      29.92R VSB 1/4

$$
AND FOR LAKE MICHIGAN COASTAL AND OPEN LAKE BUOY OBSERVATIONS

STATION/POSITION TEMP    WIND        PRES    VSBY  WAVE
                 AIR SEA DIR/SP/G                  HT/PER
                 (F)     (DEG/KT/KT) (MB)    (MI)  (FT/S)
CALUMET HARBOR    44      10/ 12/ 17 1013.7R
MICHIGAN CITY     45     350/ 12/ 13   N/A
BURNS HARBOR      45      20/ 11/ 13 1014.9R
SAINT JOSEPH      49      30/  3/ 11 1014.6R
SOUTH LAKE BUOY   41 40   40/ 14/ 16 1015.0          2/ 4
4 MI NW BRIDGMAN  49 49                N/A           2/ 4

$$
&&




USA.gov is the U.S. government's official web portal to all federal, state and local government web resources and services.